Weather History for Talkeetna, AK

Change the Weather History Date:

Saturday, September 22, 2012

  Actual Average Record
Temperature  
Mean Temperature 52 °F -  
Max Temperature 57 °F 51 °F 62 °F (1984)
Min Temperature 46 °F 33 °F 15 °F (1970)
Degree Days  
Heating Degree Days 14    
Growing Degree Days 2 (Base 50)    
Moisture  
Dew Point 49 °F    
Average Humidity 82    
Maximum Humidity 97    
Minimum Humidity 69    
Precipitation  
Precipitation 0.00 in - - ()
Sea Level Pressure  
Sea Level Pressure 29.47 in    
Wind  
Wind Speed 3 mph (NE)    
Max Wind Speed 7 mph    
Max Gust Speed -    
Visibility 10 miles    
Events Rain    
Averages and records for this station are not official NWS values.
T = Trace of Precipitation, MM = Missing Value Source: NWS Daily Summary

Daily Weather History Graph

Daily Weather History Graph

Search for Another Location

Airport:

Trip Planner

Search our weather history database for the weather conditions in past years. The results will help you decide how hot, cold, wet, or windy it might be!

Date:

Astronomy

Sep. 22, 2012 Rise Set
Actual Time 7:45 AM AKDT 7:58 PM AKDT
Civil Twilight 7:00 AM AKDT 8:42 PM AKDT
Nautical Twilight 6:06 AM AKDT 9:37 PM AKDT
Astronomical Twilight 5:05 AM AKDT 10:36 PM AKDT
Moon 5:08 PM AKDT (9/22) 11:21 PM AKDT (9/22)
Length of Visible Light 13h 42m
Length of Day
12h 12m
Waxing Crescent, 50% of the Moon is Illuminated
Sep 22
Waxing Crescent
Sep 29
Full
Oct 7
Last Quarter
Oct 15
New
Oct 21
First Quarter

Hourly Weather History & Observations

Time (AKDT) Temp. Dew Point Humidity Pressure Visibility Wind Dir Wind Speed Gust Speed Precip Events Conditions
12:53 AM 52.0 °F 46.9 °F 83% 29.58 in 10.0 mi NNE 6.9 mph - N/A   Overcast
1:53 AM 53.1 °F 46.9 °F 80% 29.56 in 10.0 mi Calm Calm - N/A   Overcast
2:53 AM 52.0 °F 46.9 °F 83% 29.55 in 10.0 mi ENE 3.5 mph - N/A   Scattered Clouds
3:53 AM 52.0 °F 46.0 °F 80% 29.52 in 10.0 mi NNE 5.8 mph - N/A   Scattered Clouds
4:53 AM 52.0 °F 46.0 °F 80% 29.49 in 10.0 mi North 3.5 mph - N/A   Mostly Cloudy
5:53 AM 54.0 °F 45.0 °F 72% 29.47 in 10.0 mi NNE 4.6 mph - N/A   Overcast
6:53 AM 55.0 °F 45.0 °F 69% 29.45 in 10.0 mi Variable 4.6 mph - N/A   Overcast
7:53 AM 52.0 °F 46.9 °F 83% 29.45 in 10.0 mi Calm Calm - 0.00 in   Overcast
8:53 AM 52.0 °F 46.9 °F 83% 29.47 in 10.0 mi Calm Calm - N/A   Overcast
9:53 AM 53.1 °F 46.9 °F 80% 29.46 in 10.0 mi NE 3.5 mph - N/A   Overcast
10:53 AM 54.0 °F 48.0 °F 80% 29.45 in 10.0 mi Calm Calm - 0.00 in Rain Light Rain
11:53 AM 57.0 °F 48.0 °F 72% 29.44 in 10.0 mi Calm Calm - 0.00 in   Scattered Clouds
12:53 PM 57.0 °F 48.9 °F 74% 29.43 in 10.0 mi Calm Calm - N/A   Overcast
1:53 PM 55.0 °F 50.0 °F 83% 29.44 in 10.0 mi NE 3.5 mph - 0.00 in   Overcast
2:53 PM 57.0 °F 50.0 °F 77% 29.44 in 10.0 mi Calm Calm - N/A   Overcast
3:53 PM 57.9 °F 51.1 °F 78% 29.44 in 10.0 mi Calm Calm - 0.00 in Rain Light Rain
4:53 PM 55.9 °F 51.1 °F 84% 29.46 in 10.0 mi Calm Calm - 0.00 in Rain Light Rain
5:53 PM 55.9 °F 53.1 °F 90% 29.47 in 10.0 mi East 3.5 mph - 0.01 in Rain Light Rain
6:53 PM 55.0 °F 53.1 °F 93% 29.46 in 10.0 mi NE 3.5 mph - 0.00 in Rain Light Rain
7:53 PM 54.0 °F 53.1 °F 97% 29.46 in 10.0 mi Calm Calm - 0.00 in   Mostly Cloudy
8:53 PM 53.1 °F 51.1 °F 93% 29.46 in 10.0 mi North 3.5 mph - N/A   Clear
9:53 PM 53.1 °F 50.0 °F 89% 29.44 in 10.0 mi NNE 6.9 mph - N/A   Overcast
10:53 PM 52.0 °F 50.0 °F 93% 29.44 in 10.0 mi Calm Calm - 0.01 in Rain Light Rain
11:53 PM 51.1 °F 50.0 °F 96% 29.43 in 10.0 mi NNE 4.6 mph - 0.01 in Rain Light Rain